This is the latest recevied weather packets stored in our database for station/object KF0EZB. If no packets are shown the sender has not sent any weather packets the latest 10 day(s).
| Time | Temp. | Humidity | Pressure | Rain* | Wind** | Luminosity | Snow |
|---|---|---|---|---|---|---|---|
| 1777515265 | 10.56° C | 57% | 1018.5 hPa | 0 mm | - | 0 W/m² | - |
| 1777514961 | 11.11° C | 57% | 1018.2 hPa | 0 mm | - | 0 W/m² | - |
| 1777514657 | 11.11° C | 56% | 1018.3 hPa | 0 mm | - | 0 W/m² | - |
| 1777514355 | 11.67° C | 56% | 1018.2 hPa | 0 mm | - | 0 W/m² | - |
| 1777514051 | 11.67° C | 56% | 1018.1 hPa | 0 mm | - | 0 W/m² | - |
| 1777513749 | 11.67° C | 56% | 1018 hPa | 0 mm | - | 0 W/m² | - |
| 1777513445 | 12.22° C | 55% | 1017.9 hPa | 0 mm | - | 0 W/m² | - |
| 1777513141 | 12.22° C | 55% | 1018 hPa | 0 mm | - | 0 W/m² | - |
| 1777512831 | 12.22° C | 54% | 1018 hPa | 0 mm | - | 0 W/m² | - |
| 1777512529 | 12.78° C | 52% | 1017.6 hPa | 0 mm | - | 0 W/m² | - |
| 1777512225 | 13.33° C | 51% | 1017.6 hPa | 0 mm | - | 2 W/m² | - |
| 1777511923 | 13.33° C | 51% | 1017.5 hPa | 0 mm | - | 4 W/m² | - |
| 1777511620 | 13.89° C | 51% | 1017.3 hPa | 0 mm | - | 7 W/m² | - |
| 1777511318 | 13.89° C | 50% | 1017.1 hPa | 0 mm | - | 11 W/m² | - |
| 1777511013 | 14.44° C | 50% | 1016.8 hPa | 0 mm | - | 14 W/m² | - |
| 1777510710 | 14.44° C | 49% | 1017.1 hPa | 0 mm | - | 17 W/m² | - |
| 1777510406 | 14.44° C | 47% | 1017.2 hPa | 0 mm | - | 21 W/m² | - |
| 1777510102 | 15° C | 46% | 1016.9 hPa | 0 mm | - | 24 W/m² | - |
| 1777509800 | 15° C | 45% | 1017.1 hPa | 0 mm | - | 29 W/m² | - |
| 1777509495 | 15° C | 44% | 1017.2 hPa | 0 mm | - | 34 W/m² | - |
| 1777509193 | 15.56° C | 43% | 1016.9 hPa | 0 mm | - | 34 W/m² | - |
| 1777508890 | 15.56° C | 42% | 1017.3 hPa | 0 mm | - | 56 W/m² | - |
| 1777508586 | 15.56° C | 43% | 1016.9 hPa | 0 mm | - | 65 W/m² | - |
| 1777508284 | 15.56° C | 43% | 1017.4 hPa | 0 mm | - | 74 W/m² | - |
| 1777507981 | 15.56° C | 42% | 1017.5 hPa | 0 mm | - | 88 W/m² | - |
* Rain latest hour (hover to see other rain measurements)
** Current wind speed in m/s (hover to see current wind gust speed)